Temperature
-7 -6 -6 -5 -4 -3 -2 -2 -1 -0 2 4 6 8 9 9 10 10 10 11 11 11 12 12 12 12 13 13 13 13 13 13 13 13 13 13 13 13
-7 -7 -6 -5 -4 -3 -2 -1 -1 -0 1 3 5 7 8 8 9 9 10 10 10 11 11 12 12 12 12 12 13 13 13 13 13 13 12 12 12 12
-8 -7 -7 -6 -5 -4 -2 -1 -1 -0 0 2 4 5 6 7 8 8 9 9 10 10 11 11 12 12 12 12 12 12 13 13 12 12 11 11 11 11
-8 -7 -7 -6 -5 -4 -3 -2 -1 -0 1 1 3 4 5 6 7 8 8 9 9 10 10 11 11 12 12 12 12 12 12 12 12 11 11 11 11 10
-8 -8 -7 -7 -6 -5 -4 -2 -2 -1 0 1 2 3 4 5 6 7 8 8 8 9 9 10 11 11 12 12 12 12 12 12 11 11 10 10 10 9
-8 -8 -7 -7 -6 -5 -4 -3 -2 -1 -0 1 2 2 3 5 5 6 7 7 8 8 8 9 10 10 11 11 11 11 11 11 10 10 10 9 8 8
-8 -8 -8 -7 -7 -6 -5 -4 -3 -2 -1 0 1 2 3 4 4 5 6 7 7 8 8 8 9 9 9 10 10 10 10 10 9 9 8 7 7 7
-8 -8 -8 -8 -8 -7 -6 -5 -4 -4 -2 -1 0 1 2 3 4 5 5 6 6 7 7 7 8 8 8 8 9 9 9 8 7 6 6 6 6 6
-9 -9 -9 -9 -8 -8 -7 -6 -5 -5 -5 -3 -2 -1 0 1 3 4 5 5 6 6 7 6 6 7 6 7 7 6 6 5 5 5 4 4 5 5
-9 -9 -9 -9 -9 -9 -8 -7 -7 -6 -6 -5 -4 -3 -2 -0 2 3 4 5 6 5 6 5 4 4 4 4 4 4 4 4 4 4 4 3 3 3
-10 -10 -10 -10 -9 -10 -9 -9 -8 -7 -6 -6 -5 -4 -2 -1 1 2 4 4 4 4 4 4 4 3 3 3 3 3 3 3 3 3 3 3 3 3
-10 -10 -10 -10 -10 -10 -10 -10 -10 -9 -7 -6 -5 -3 -2 -1 0 2 3 3 3 3 3 3 3 2 2 2 2 2 2 2 2 2 2 2 2 3
-11 -11 -11 -11 -11 -11 -11 -11 -11 -10 -8 -7 -6 -5 -4 -3 -2 -0 1 2 2 2 2 2 2 2 1 1 1 1 1 1 1 2 2 2 2 3
-12 -12 -12 -12 -11 -11 -11 -11 -11 -10 -10 -9 -8 -8 -7 -6 -5 -3 -2 -1 0 1 1 2 2 2 1 1 0 0 1 1 1 2 2 2 2 2
-13 -12 -12 -12 -12 -12 -12 -11 -11 -11 -11 -11 -11 -10 -9 -8 -7 -5 -4 -2 -1 -0 1 1 1 1 1 1 0 0 0 1 1 1 1 1 1 1
-13 -13 -13 -13 -13 -13 -13 -12 -12 -13 -12 -12 -12 -11 -10 -9 -8 -7 -5 -3 -2 -2 -1 -0 0 1 1 1 1 0 0 0 0 0 0 0 1 1
-14 -13 -13 -13 -14 -14 -14 -14 -13 -13 -12 -12 -11 -11 -11 -10 -10 -8 -7 -6 -5 -4 -3 -2 -1 -0 -0 -0 -0 -0 -0 -0 -0 -0 -0 -0 -0 -0
-14 -14 -14 -15 -15 -15 -15 -15 -15 -14 -14 -13 -13 -12 -11 -11 -11 -10 -9 -8 -7 -7 -6 -5 -4 -2 -2 -2 -3 -2 -2 -1 -1 -1 -1 -1 -1 -1
-14 -14 -15 -15 -15 -15 -15 -15 -15 -15 -15 -14 -14 -13 -12 -12 -11 -11 -10 -10 -9 -9 -8 -7 -6 -4 -3 -5 -7 -6 -4 -4 -3 -3 -3 -2 -2 -2
-14 -14 -15 -15 -15 -15 -15 -15 -15 -15 -15 -15 -15 -14 -13 -13 -12 -12 -11 -10 -10 -10 -9 -9 -8 -7 -6 -6 -8 -8 -7 -6 -5 -4 -4 -4 -4 -4
-14 -14 -14 -15 -15 -15 -15 -15 -15 -15 -15 -15 -15 -15 -14 -14 -13 -13 -12 -12 -11 -10 -10 -10 -10 -9 -9 -8 -8 -9 -8 -7 -7 -6 -5 -5 -5 -4
-14 -14 -14 -15 -15 -15 -15 -15 -15 -15 -15 -15 -15 -15 -15 -14 -14 -14 -13 -13 -12 -12 -11 -11 -11 -10 -10 -9 -9 -9 -9 -8 -8 -7 -7 -6 -6 -5
-14 -14 -14 -15 -15 -15 -15 -15 -15 -15 -15 -15 -15 -15 -15 -15 -14 -14 -14 -14 -13 -13 -12 -12 -12 -11 -11 -10 -10 -10 -10 -9 -9 -8 -8 -7 -7 -7
Wind_Speed
11 12 12 11 12 13 13 13 13 13 12 10 7 6 4 4 8 8 7 13 16 17 16 16 17 19 22 25 28 30 31 30 29 29 28 28 26 24
10 13 13 11 12 12 12 13 13 14 12 7 6 5 4 3 7 7 8 13 16 18 18 18 18 19 20 23 26 30 31 31 31 31 31 29 27 26
12 14 15 15 12 12 10 10 11 12 14 11 8 7 6 4 3 3 6 6 8 17 19 19 19 20 21 22 25 28 30 31 32 33 32 31 29 27
13 15 16 14 15 12 11 9 8 8 10 11 8 6 7 5 4 4 4 4 5 12 17 18 19 20 21 21 23 27 30 32 33 32 33 32 30 29
12 14 15 15 14 13 12 10 8 7 6 7 7 6 5 4 4 3 4 3 4 7 12 14 17 19 20 21 24 27 30 32 32 32 33 33 31 29
11 12 13 14 14 15 11 11 9 7 6 6 6 5 5 4 4 4 3 3 3 4 6 9 13 16 20 24 26 28 30 32 33 33 32 31 29 28
9 11 13 17 20 17 13 13 12 7 5 4 4 4 4 3 4 4 5 4 3 4 7 7 9 10 13 24 29 33 35 35 35 34 32 31 29 27
9 11 13 15 19 22 24 23 22 15 10 7 4 3 2 3 3 4 6 6 5 5 7 8 9 11 10 14 28 35 36 36 35 33 32 31 29 26
10 10 13 16 18 14 19 23 23 26 23 13 10 8 6 5 4 4 7 8 5 8 11 10 9 11 10 20 30 33 34 34 33 32 30 29 27 25
10 11 12 14 18 18 15 16 16 18 20 15 13 13 13 10 5 4 4 6 7 5 8 10 9 10 11 13 26 29 30 31 31 31 29 28 26 23
13 14 14 14 25 25 18 16 16 16 21 25 24 23 25 26 18 4 4 11 11 5 4 6 8 9 8 8 17 27 28 29 29 29 29 27 26 22
12 14 22 23 26 26 17 16 17 16 16 18 20 22 20 22 26 15 6 5 11 6 2 5 8 7 7 6 8 16 22 26 28 27 26 25 23 18
11 11 13 26 27 27 23 17 20 16 13 14 14 15 16 16 17 17 14 7 5 6 2 5 6 5 6 5 6 8 13 15 18 19 19 17 16 16
10 8 12 24 25 26 21 24 26 20 12 13 13 15 15 15 14 15 16 15 13 11 8 6 6 6 8 7 6 6 9 12 13 11 13 16 16 15
10 18 20 22 21 18 24 27 21 14 13 14 14 14 13 14 13 13 13 14 18 19 18 14 10 8 7 9 7 6 6 6 7 7 7 8 7 7
10 15 20 21 18 19 19 16 14 14 13 12 12 12 12 13 14 13 13 11 13 16 20 22 15 12 11 11 11 10 8 7 6 6 6 6 8 8
9 8 9 10 12 12 12 12 12 12 13 12 12 12 12 13 13 13 12 12 13 13 13 13 18 21 17 13 11 11 11 10 7 5 5 5 3 6
12 8 10 10 11 11 11 11 10 11 11 11 11 11 11 10 11 11 11 12 12 12 11 9 7 9 11 14 16 11 10 9 6 5 4 4 3 4
7 5 6 6 7 7 7 7 7 8 7 8 8 8 9 9 9 10 10 10 10 11 11 11 9 7 10 8 8 13 7 6 5 4 4 4 3 1
4 4 4 5 5 5 5 5 5 5 5 6 6 6 7 8 8 8 9 10 10 10 11 11 11 10 7 6 5 4 11 7 5 5 3 3 2 4
4 4 4 4 4 4 4 4 5 5 5 5 5 6 6 6 6 7 8 12 10 9 10 8 7 10 4 5 7 4 5 9 6 3 3 2 2 2
4 4 4 4 4 3 4 4 4 4 4 4 4 4 4 4 5 6 6 6 6 6 6 4 5 7 6 6 6 4 3 3 4 1 2 2 1 1
4 4 4 5 4 3 3 4 4 4 3 3 3 3 3 3 3 4 4 4 4 5 5 5 4 5 5 4 4 2 2 2 2 2 2 3 5 8
Wind_Direction
315 314 309 299 285 271 258 245 248 259 268 275 279 274 249 203 198 192 195 203 206 212 216 214 214 213 209 203 196 191 188 185 180 176 175 172 164 154
321 320 317 309 302 283 263 249 240 245 256 267 273 296 299 256 207 194 203 207 208 213 218 218 216 214 211 206 197 191 186 180 176 175 175 166 152 145
327 324 321 318 312 308 285 258 244 239 247 258 267 281 294 279 246 214 211 206 209 212 216 219 217 213 210 206 198 189 181 175 171 172 167 156 149 146
326 326 324 324 320 314 309 296 275 256 247 252 257 263 263 261 239 226 218 204 197 207 210 214 216 213 206 199 191 180 172 167 163 160 155 149 147 145
321 326 326 326 328 324 318 313 299 284 265 255 253 251 253 251 243 235 213 194 180 190 195 199 202 200 192 182 175 166 160 155 150 147 144 142 142 141
320 330 331 333 337 336 337 336 325 309 286 265 252 245 243 244 218 209 202 178 167 155 147 145 154 160 161 156 151 144 139 135 133 131 130 130 131 131
336 342 342 351 358 360 3 2 358 350 332 298 267 241 229 223 216 193 188 161 142 144 131 126 124 126 131 131 128 127 125 124 124 123 123 121 119 118
357 355 356 359 11 9 13 17 19 19 14 4 344 315 285 258 244 206 177 168 164 156 133 119 117 114 115 119 123 121 120 121 121 121 120 118 116 115
15 13 14 9 21 14 12 17 18 22 27 23 16 9 354 339 314 245 198 173 149 153 137 122 115 113 112 122 120 120 120 121 121 121 120 119 118 118
23 22 23 14 25 25 15 18 17 16 19 23 21 14 8 359 323 275 210 139 114 118 135 124 117 111 114 121 126 126 127 129 129 130 129 128 127 126
25 26 29 24 28 30 21 18 19 15 14 20 23 24 21 22 18 6 175 159 146 115 72 109 118 104 88 92 122 128 130 132 133 134 134 133 131 126
27 19 26 31 29 33 26 21 24 16 11 12 17 19 20 21 24 24 3 166 144 124 54 113 125 114 94 54 71 108 117 121 124 127 130 131 130 124
29 19 20 28 30 32 33 28 28 24 16 17 18 18 19 21 22 22 22 29 105 103 83 111 118 94 109 107 61 68 96 106 109 113 114 117 127 135
20 16 23 29 29 30 33 30 29 27 22 24 25 22 19 16 15 21 29 37 45 62 58 81 109 123 127 117 108 87 85 93 102 102 100 100 99 104
18 24 27 30 29 27 29 30 28 26 24 27 27 22 17 14 15 19 24 37 44 46 48 60 91 106 110 124 123 126 103 91 97 103 101 98 94 95
21 22 25 27 30 27 29 28 25 27 28 25 23 21 19 21 24 23 28 31 48 48 45 52 64 88 104 107 116 118 115 122 115 103 100 97 99 100
26 18 19 20 22 22 24 26 25 24 26 23 23 25 27 30 30 29 34 41 51 53 51 55 65 72 72 84 103 105 107 105 102 99 109 117 119 130
30 22 23 22 20 18 18 19 22 25 24 25 25 24 27 31 34 35 40 45 49 46 40 37 64 82 78 58 51 95 99 102 97 82 78 99 95 80
23 11 12 13 13 11 10 9 14 17 16 22 23 20 24 31 39 41 42 48 52 50 41 35 36 68 95 95 48 46 82 95 98 87 70 72 83 44
2 2 1 0 3 4 3 2 360 8 10 14 19 18 23 30 36 40 45 50 54 55 51 44 44 50 70 93 104 63 56 65 73 77 65 48 357 318
344 347 346 350 352 354 355 356 355 358 6 10 19 20 20 29 34 34 42 55 58 57 59 50 35 43 47 70 88 76 48 63 72 84 76 49 16 356
327 329 329 331 337 343 344 347 349 351 4 16 14 18 20 28 33 36 39 45 49 52 58 53 34 43 54 76 82 75 55 27 18 360 208 200 140 61
303 302 305 311 316 326 338 342 341 339 349 360 5 14 20 24 27 33 34 41 47 44 43 43 42 49 56 65 75 66 41 18 24 26 350 294 261 267
Height
1432 1428 1424 1421 1419 1417 1417 1417 1418 1415 1410 1408 1411 1415 1418 1422 1425 1429 1432 1436 1440 1445 1450 1455 1460 1466 1472 1477 1483 1489 1494 1500 1506 1512 1517 1523 1527 1530
1428 1423 1419 1415 1411 1409 1407 1407 1408 1409 1407 1404 1407 1410 1413 1415 1419 1423 1426 1430 1434 1438 1443 1447 1453 1458 1464 1471 1477 1482 1488 1494 1500 1506 1512 1517 1520 1525
1424 1419 1414 1410 1406 1402 1399 1398 1398 1400 1400 1399 1401 1404 1406 1409 1413 1416 1420 1424 1427 1431 1435 1440 1445 1451 1456 1463 1469 1476 1481 1487 1493 1500 1506 1510 1515 1520
1421 1416 1411 1406 1401 1397 1393 1390 1390 1391 1393 1394 1395 1398 1400 1404 1407 1411 1414 1418 1421 1424 1428 1433 1438 1443 1449 1455 1462 1468 1475 1481 1488 1494 1499 1504 1510 1516
1419 1414 1408 1403 1398 1393 1388 1385 1383 1383 1385 1387 1388 1391 1394 1398 1402 1405 1409 1412 1415 1418 1422 1425 1430 1436 1441 1448 1454 1461 1468 1474 1481 1487 1493 1499 1505 1511
1417 1412 1407 1402 1397 1391 1386 1382 1378 1377 1378 1380 1382 1385 1388 1392 1396 1399 1403 1407 1410 1413 1417 1420 1424 1429 1435 1441 1447 1454 1461 1468 1475 1481 1487 1493 1500 1507
1415 1411 1406 1402 1396 1391 1386 1380 1376 1374 1373 1375 1377 1380 1383 1386 1390 1394 1398 1402 1406 1409 1412 1416 1419 1424 1429 1436 1442 1449 1456 1463 1469 1476 1482 1490 1497 1504
1414 1410 1406 1401 1396 1390 1385 1380 1377 1373 1371 1371 1372 1374 1377 1381 1385 1389 1393 1397 1401 1404 1408 1412 1416 1421 1427 1434 1439 1445 1451 1458 1465 1473 1481 1489 1496 1502
1415 1411 1407 1403 1397 1391 1386 1381 1376 1373 1372 1370 1369 1370 1373 1376 1379 1383 1387 1391 1395 1399 1404 1409 1414 1419 1426 1432 1438 1443 1450 1457 1464 1473 1481 1488 1494 1500
1416 1413 1410 1405 1400 1394 1388 1383 1378 1374 1372 1369 1368 1368 1369 1370 1373 1377 1381 1386 1391 1396 1399 1405 1412 1418 1426 1433 1440 1445 1452 1459 1466 1473 1480 1487 1493 1499
1418 1416 1413 1409 1404 1397 1391 1386 1382 1378 1375 1372 1369 1367 1366 1366 1368 1373 1377 1380 1384 1390 1394 1400 1409 1416 1425 1434 1442 1448 1454 1461 1467 1474 1480 1486 1493 1498
1421 1418 1416 1413 1408 1402 1396 1392 1387 1383 1379 1375 1371 1368 1366 1366 1367 1368 1372 1375 1377 1384 1391 1397 1405 1413 1424 1434 1441 1449 1456 1462 1468 1474 1481 1487 1492 1496
1425 1423 1420 1417 1412 1407 1403 1398 1395 1390 1385 1380 1375 1371 1368 1366 1366 1367 1369 1372 1375 1380 1388 1394 1402 1411 1418 1430 1439 1447 1454 1461 1468 1474 1480 1486 1491 1495
1431 1428 1425 1421 1416 1412 1408 1404 1400 1395 1391 1386 1381 1378 1374 1372 1370 1370 1370 1372 1375 1379 1387 1395 1401 1409 1416 1425 1435 1445 1454 1461 1468 1473 1478 1483 1488 1492
1435 1433 1429 1425 1420 1416 1412 1408 1404 1400 1396 1392 1389 1387 1384 1382 1379 1376 1375 1376 1378 1382 1390 1398 1405 1412 1419 1424 1432 1442 1450 1458 1466 1471 1476 1481 1485 1489
1438 1435 1431 1428 1424 1420 1416 1412 1409 1407 1404 1401 1399 1396 1393 1390 1386 1384 1383 1382 1383 1387 1394 1401 1408 1415 1421 1427 1434 1441 1449 1455 1462 1468 1473 1478 1482 1485
1441 1437 1434 1430 1427 1424 1421 1418 1415 1412 1410 1408 1406 1403 1401 1398 1396 1394 1392 1391 1391 1394 1399 1404 1410 1415 1422 1428 1435 1441 1448 1454 1459 1465 1470 1475 1479 1482
1445 1441 1438 1435 1432 1429 1426 1423 1421 1418 1416 1414 1412 1410 1408 1407 1405 1404 1403 1401 1401 1403 1405 1409 1412 1417 1422 1430 1436 1441 1446 1452 1458 1463 1467 1471 1474 1477
1448 1445 1443 1440 1437 1434 1431 1428 1426 1423 1421 1419 1417 1415 1414 1413 1412 1412 1412 1411 1412 1412 1414 1415 1417 1420 1423 1430 1439 1444 1447 1451 1455 1459 1463 1467 1470 1473
1451 1448 1446 1443 1440 1437 1434 1432 1429 1427 1425 1423 1421 1419 1418 1417 1417 1417 1417 1417 1418 1419 1420 1421 1423 1425 1428 1432 1438 1444 1448 1451 1454 1458 1461 1464 1468 1470
1452 1450 1447 1445 1442 1439 1437 1434 1432 1430 1428 1426 1424 1423 1422 1421 1421 1421 1421 1422 1422 1423 1424 1426 1427 1430 1432 1436 1439 1443 1447 1450 1453 1456 1459 1462 1464 1466
1451 1449 1447 1445 1443 1440 1438 1436 1434 1432 1430 1429 1427 1426 1425 1425 1424 1424 1424 1425 1425 1426 1427 1429 1431 1433 1435 1437 1440 1444 1447 1450 1452 1454 1457 1459 1460 1463
1449 1448 1446 1444 1442 1440 1438 1436 1435 1433 1432 1431 1430 1429 1428 1428 1427 1427 1427 1428 1428 1429 1430 1430 1432 1434 1436 1439 1442 1444 1447 1449 1450 1453 1455 1456 1458 1459